Florala, AL

2:49 PM CDT on June 25, 2017 (GMT -0500)
Florala

Weather History for K0J4 - April, 2014

Change the Weather History Date:

Monday, April 7, 2014

  Actual Average (KCEW) Record (KCEW)
Temperature  
Mean Temperature 68 °F -  
Max Temperature 75 °F 77 °F 88 °F (1978)
Min Temperature 59 °F 50 °F 32 °F (1950)
Cooling Degree Days 4    
Growing Degree Days 18 (Base 50)    
Moisture  
Dew Point 66 °F    
Average Humidity 86    
Maximum Humidity 94    
Minimum Humidity 69    
Precipitation  
Precipitation 0.98 in - - ()
Sea Level Pressure  
Sea Level Pressure 29.75 in    
Wind  
Wind Speed 11 mph (SSW)    
Max Wind Speed 18 mph    
Max Gust Speed 30 mph    
Visibility 8 miles    
Events Rain    
Averages and records for this station are not official NWS values.
T = Trace of Precipitation, MM = Missing Value Source: NWS Daily Summary

Daily Weather History Graph

Daily Weather History Graph

Search for Another Location

Airport or City:

Trip Planner

Search our weather history database for the weather conditions in past years. The results will help you decide how hot, cold, wet, or windy it might be!

Date:

Astronomy

Apr. 07, 2014 Rise Set
Actual Time 6:26 AM CDT 7:08 PM CDT
Civil Twilight 6:02 AM CDT 7:32 PM CDT
Nautical Twilight 5:33 AM CDT 8:01 PM CDT
Astronomical Twilight 5:04 AM CDT 8:31 PM CDT
Moon 12:32 PM CDT (4/7) 1:34 AM CDT (4/7)
Length of Visible Light 13h 30m
Length of Day
12h 41m
First Quarter, 53% of the Moon is Illuminated
Apr 7
First Quarter
Apr 15
Full
Apr 22
Last Quarter
Apr 29
New
May 6
First Quarter

Hourly Weather History & Observations

Time (CDT) Temp. Dew Point Humidity Pressure Visibility Wind Dir Wind Speed Gust Speed Precip Events Conditions
12:58 AM 71.1 °F 68.0 °F 90% 29.79 in 10.0 mi South 15.0 mph - 0.00 in   Overcast
1:58 AM 71.1 °F 68.0 °F 90% 29.77 in 9.0 mi South 17.3 mph 23.0 mph 0.00 in   Overcast
2:58 AM 72.0 °F 69.1 °F 91% 29.79 in 9.0 mi South 12.7 mph 19.6 mph N/A   Overcast
3:58 AM 72.0 °F 69.1 °F 91% 29.75 in 9.0 mi South 9.2 mph 18.4 mph 0.00 in   Overcast
4:58 AM 72.0 °F 69.1 °F 91% 29.72 in 8.0 mi South 15.0 mph 27.6 mph N/A   Overcast
5:58 AM 73.9 °F 70.0 °F 87% 29.73 in 9.0 mi South 12.7 mph 29.9 mph N/A   Overcast
6:58 AM 73.9 °F 70.0 °F 87% 29.72 in 10.0 mi SSW 16.1 mph 21.9 mph N/A   Overcast
7:58 AM 73.9 °F 70.0 °F 87% 29.73 in 10.0 mi SSW 17.3 mph 28.8 mph N/A   Overcast
8:58 AM 73.9 °F 71.1 °F 91% 29.76 in 8.0 mi SW 18.4 mph 28.8 mph 0.04 in Rain Light Rain
9:07 AM 71.6 °F 66.2 °F 83% 29.79 in 2.5 mi Variable 4.6 mph - 0.09 in Rain Heavy Rain
9:11 AM 68.0 °F 66.2 °F 94% 29.77 in 1.8 mi Variable 4.6 mph - 0.12 in Rain Heavy Rain
9:30 AM 66.2 °F 64.4 °F 94% 29.81 in 1.8 mi SW 10.4 mph 21.9 mph 0.48 in Rain Heavy Rain
9:34 AM 66.2 °F 64.4 °F 94% 29.80 in 2.0 mi SSW 13.8 mph 20.7 mph 0.50 in Rain Heavy Rain
9:56 AM 66.2 °F 64.4 °F 94% 29.78 in 4.0 mi SW 9.2 mph - 0.63 in Rain Rain
9:58 AM 66.9 °F 64.9 °F 93% 29.77 in 4.0 mi SSW 5.8 mph - 0.63 in Rain Rain
10:58 AM 66.9 °F 64.9 °F 93% 29.77 in 3.0 mi South 8.1 mph - 0.17 in Rain Heavy Rain
11:04 AM 66.2 °F 64.4 °F 94% 29.78 in 2.5 mi South 6.9 mph - 0.02 in Rain Heavy Rain
11:11 AM 66.2 °F 64.4 °F 94% 29.78 in 3.0 mi SSW 8.1 mph - 0.04 in Rain Rain
11:24 AM 66.2 °F 64.4 °F 94% 29.77 in 4.0 mi South 9.2 mph - 0.09 in Rain Heavy Rain
11:58 AM 68.0 °F 66.0 °F 93% 29.74 in 8.0 mi South 6.9 mph - 0.14 in Rain Light Rain
12:42 PM 69.8 °F 66.2 °F 88% 29.73 in 10.0 mi South 12.7 mph 19.6 mph 0.00 in   Mostly Cloudy
12:50 PM 69.8 °F 66.2 °F 88% 29.73 in 10.0 mi South 11.5 mph - 0.00 in   Mostly Cloudy
12:54 PM 71.6 °F 66.2 °F 83% 29.72 in 10.0 mi South 10.4 mph - 0.00 in   Mostly Cloudy
12:58 PM 71.1 °F 68.0 °F 90% 29.71 in 10.0 mi SSW 9.2 mph - 0.00 in   Mostly Cloudy
1:46 PM 71.6 °F 66.2 °F 83% 29.72 in 10.0 mi SW 9.2 mph - N/A   Mostly Cloudy
1:58 PM 73.0 °F 68.0 °F 84% 29.70 in 10.0 mi SW 5.8 mph - N/A   Overcast
2:07 PM 73.4 °F 68.0 °F 83% 29.71 in 10.0 mi SW 8.1 mph - N/A   Overcast
2:36 PM 73.4 °F 68.0 °F 83% 29.70 in 10.0 mi SW 9.2 mph - N/A   Overcast
2:40 PM 73.4 °F 68.0 °F 83% 29.70 in 10.0 mi SW 10.4 mph - N/A   Overcast
2:58 PM 73.9 °F 68.0 °F 82% 29.69 in 10.0 mi SSW 11.5 mph - N/A   Overcast
3:19 PM 75.2 °F 68.0 °F 78% 29.69 in 10.0 mi SSW 9.2 mph - N/A   Scattered Clouds
3:57 PM 75.0 °F 66.9 °F 76% 29.67 in 10.0 mi South 10.4 mph - N/A   Mostly Cloudy
4:12 PM 75.2 °F 66.2 °F 73% 29.69 in 10.0 mi SW 8.1 mph - N/A   Mostly Cloudy
4:58 PM 75.0 °F 66.9 °F 76% 29.70 in 10.0 mi SSW 10.4 mph - N/A   Mostly Cloudy
5:58 PM 73.0 °F 66.9 °F 81% 29.71 in 10.0 mi SSW 8.1 mph - N/A   Clear
6:58 PM 71.1 °F 66.9 °F 87% 29.72 in 10.0 mi SSW 4.6 mph - N/A   Clear
7:58 PM 70.0 °F 66.9 °F 90% 29.75 in 10.0 mi Calm Calm - N/A   Mostly Cloudy
8:18 PM 69.8 °F 66.2 °F 88% 29.78 in 9.0 mi Variable 4.6 mph - N/A   Mostly Cloudy
8:23 PM 69.8 °F 66.2 °F 88% 29.79 in 10.0 mi Calm Calm - N/A   Mostly Cloudy
8:58 PM 69.1 °F 60.1 °F 73% 29.79 in 10.0 mi Variable 3.5 mph - N/A   Clear
9:58 PM 66.0 °F 57.9 °F 75% 29.81 in 10.0 mi North 3.5 mph - N/A   Clear
10:58 PM 62.1 °F 54.0 °F 75% 29.83 in 10.0 mi North 6.9 mph - N/A   Clear
11:58 PM 59.0 °F 48.9 °F 69% 29.85 in 10.0 mi North 5.8 mph - N/A   Clear